When you browse on this site, cookies collect data to enhance your experience and personalize the content and advertising you see.
Visit our Privacy Policy to learn more. By continuing to use the site, you agree to this use of cookies and data.
  • Em Portugal
  • Lista de países
  • Para 7 dias
  • Temperatura da água
  • Mapa do tempo
  • Widgets de tempo
  • user-avatar
    Iniciar Sessão

    Previsão horária em Tirana

    Hoje, 23 Setembro, Segunda-feira

    Tempo Temperatura Precipitação Vento Pressão Humidade
    00:00 +20°C° 0 mm 3 m/s 755 mmHg 68%
    01:00 +20°C° 0 mm 2 m/s 755 mmHg 65%
    02:00 +20°C° 0 mm 3 m/s 755 mmHg 65%
    03:00 +20°C° 0 mm 3 m/s 755 mmHg 65%
    04:00 +20°C° 0 mm 4 m/s 754 mmHg 64%
    05:00 +21°C° 0 mm 3 m/s 754 mmHg 61%
    06:00 +21°C° 0 mm 3 m/s 754 mmHg 57%
    07:00 +22°C° 0 mm 4 m/s 754 mmHg 59%
    08:00 +23°C° 0.4 mm 4 m/s 754 mmHg 56%
    09:00 +25°C° 0.4 mm 4 m/s 753 mmHg 54%
    10:00 +26°C° 0.4 mm 5 m/s 753 mmHg 51%
    11:00 +26°C° 1.4 mm 6 m/s 753 mmHg 57%
    12:00 +24°C° 1.4 mm 7 m/s 753 mmHg 63%
    13:00 +24°C° 1.4 mm 8 m/s 753 mmHg 69%
    14:00 +24°C° 2 mm 8 m/s 752 mmHg 72%
    15:00 +24°C° 2 mm 9 m/s 752 mmHg 75%
    16:00 +24°C° 2 mm 9 m/s 752 mmHg 77%
    17:00 +23°C° 3.3 mm 8 m/s 752 mmHg 81%
    18:00 +22°C° 3.3 mm 7 m/s 752 mmHg 84%
    19:00 +21°C° 3.3 mm 6 m/s 751 mmHg 87%
    20:00 +21°C° 2.7 mm 6 m/s 751 mmHg 87%
    21:00 +21°C° 2.7 mm 5 m/s 751 mmHg 87%
    22:00 +21°C° 2.7 mm 5 m/s 751 mmHg 88%
    23:00 +21°C° 2.3 mm 5 m/s 751 mmHg 87%

    Amanhã, 24 Setembro, Terça-feira

    Tempo Temperatura Precipitação Vento Pressão Humidade
    00:00 +21°C° 2.3 mm 5 m/s 751 mmHg 87%
    01:00 +21°C° 2.3 mm 6 m/s 750 mmHg 87%
    02:00 +21°C° 1.5 mm 5 m/s 750 mmHg 87%
    03:00 +21°C° 1.5 mm 5 m/s 749 mmHg 87%
    04:00 +21°C° 1.5 mm 5 m/s 749 mmHg 88%
    05:00 +21°C° 1.3 mm 4 m/s 749 mmHg 87%
    06:00 +21°C° 1.3 mm 4 m/s 749 mmHg 86%
    07:00 +21°C° 1.3 mm 3 m/s 749 mmHg 85%
    08:00 +23°C° 0.7 mm 4 m/s 749 mmHg 79%
    09:00 +25°C° 0.7 mm 4 m/s 749 mmHg 73%
    10:00 +26°C° 0.7 mm 5 m/s 749 mmHg 67%
    11:00 +26°C° 0.1 mm 5 m/s 749 mmHg 63%
    12:00 +26°C° 0.1 mm 5 m/s 749 mmHg 60%
    13:00 +26°C° 0.1 mm 5 m/s 749 mmHg 57%
    14:00 +25°C° 0 mm 4 m/s 749 mmHg 59%
    15:00 +23°C° 0 mm 4 m/s 749 mmHg 62%
    16:00 +23°C° 0 mm 4 m/s 749 mmHg 65%
    17:00 +22°C° 0 mm 3 m/s 749 mmHg 70%
    18:00 +21°C° 0 mm 3 m/s 749 mmHg 75%
    19:00 +19°C° 0 mm 2 m/s 750 mmHg 81%
    20:00 +19°C° 0 mm 2 m/s 750 mmHg 81%
    21:00 +20°C° 0 mm 1 m/s 750 mmHg 82%
    22:00 +20°C° 0 mm 1 m/s 750 mmHg 82%
    23:00 +19°C° 0 mm 1 m/s 750 mmHg 82%

    Depois de amanhã, 25 Setembro, Quarta-feira

    Tempo Temperatura Precipitação Vento Pressão Humidade
    00:00 +19°C° 0 mm 1 m/s 750 mmHg 83%
    01:00 +19°C° 0 mm 1 m/s 750 mmHg 83%
    02:00 +19°C° 0.1 mm 1 m/s 750 mmHg 83%
    03:00 +19°C° 0.1 mm 1 m/s 750 mmHg 83%
    04:00 +18°C° 0.1 mm 1 m/s 750 mmHg 83%
    05:00 +18°C° 0 mm 2 m/s 750 mmHg 80%
    06:00 +19°C° 0 mm 2 m/s 750 mmHg 77%
    07:00 +19°C° 0 mm 2 m/s 750 mmHg 73%
    08:00 +21°C° 0 mm 2 m/s 751 mmHg 67%
    09:00 +23°C° 0 mm 1 m/s 751 mmHg 61%
    10:00 +25°C° 0 mm 1 m/s 751 mmHg 56%
    11:00 +26°C° 0 mm 2 m/s 751 mmHg 54%
    12:00 +26°C° 0 mm 2 m/s 751 mmHg 53%
    13:00 +27°C° 0 mm 3 m/s 750 mmHg 52%
    14:00 +26°C° 0 mm 2 m/s 750 mmHg 56%
    15:00 +25°C° 0 mm 2 m/s 750 mmHg 59%
    16:00 +25°C° 0 mm 1 m/s 750 mmHg 63%
    17:00 +24°C° 0 mm 1 m/s 751 mmHg 68%
    18:00 +22°C° 0 mm 1 m/s 751 mmHg 74%
    19:00 +21°C° 0 mm 1 m/s 751 mmHg 80%
    20:00 +21°C° 0 mm 1 m/s 751 mmHg 79%
    21:00 +21°C° 0 mm 1 m/s 752 mmHg 79%
    22:00 +19°C° 0 mm 2 m/s 752 mmHg 79%
    23:00 +19°C° 0 mm 2 m/s 752 mmHg 79%

    26 Setembro, Quinta-feira

    Tempo Temperatura Precipitação Vento Pressão Humidade
    00:00 +19°C° 0 mm 2 m/s 751 mmHg 79%
    01:00 +19°C° 0 mm 2 m/s 751 mmHg 78%
    02:00 +19°C° 0.1 mm 2 m/s 751 mmHg 77%
    03:00 +19°C° 0.1 mm 3 m/s 751 mmHg 76%
    04:00 +19°C° 0.1 mm 3 m/s 751 mmHg 75%
    05:00 +20°C° 0.1 mm 3 m/s 751 mmHg 72%
    06:00 +20°C° 0.1 mm 4 m/s 751 mmHg 69%
    07:00 +21°C° 0.1 mm 4 m/s 751 mmHg 66%
    08:00 +22°C° 0.5 mm 4 m/s 751 mmHg 63%
    09:00 +23°C° 0.5 mm 4 m/s 752 mmHg 60%
    10:00 +25°C° 0.5 mm 4 m/s 752 mmHg 57%
    11:00 +26°C° 0.8 mm 5 m/s 752 mmHg 59%
    12:00 +26°C° 0.8 mm 5 m/s 752 mmHg 61%
    13:00 +26°C° 0.8 mm 6 m/s 752 mmHg 63%
    14:00 +26°C° 0.3 mm 5 m/s 751 mmHg 63%
    15:00 +26°C° 0.3 mm 3 m/s 751 mmHg 63%
    16:00 +25°C° 0.3 mm 2 m/s 751 mmHg 63%
    17:00 +24°C° 0.1 mm 2 m/s 752 mmHg 69%
    18:00 +23°C° 0.1 mm 1 m/s 752 mmHg 75%
    19:00 +22°C° 0.1 mm 1 m/s 752 mmHg 81%
    20:00 +21°C° 0 mm 1 m/s 753 mmHg 82%
    21:00 +21°C° 0 mm 1 m/s 753 mmHg 82%
    22:00 +21°C° 0 mm 1 m/s 753 mmHg 82%
    23:00 +21°C° 0 mm 1 m/s 754 mmHg 83%

    27 Setembro, Sexta-feira

    Tempo Temperatura Precipitação Vento Pressão Humidade
    00:00 +19°C° 0 mm 2 m/s 754 mmHg 83%
    01:00 +19°C° 0 mm 2 m/s 754 mmHg 83%
    02:00 +19°C° 0 mm 2 m/s 754 mmHg 83%
    03:00 +19°C° 0 mm 2 m/s 754 mmHg 84%
    04:00 +18°C° 0 mm 2 m/s 754 mmHg 84%
    05:00 +19°C° 0 mm 2 m/s 754 mmHg 81%
    06:00 +19°C° 0 mm 2 m/s 754 mmHg 79%
    07:00 +20°C° 0 mm 2 m/s 754 mmHg 76%
    08:00 +21°C° 0 mm 3 m/s 754 mmHg 70%
    09:00 +24°C° 0 mm 3 m/s 755 mmHg 64%
    10:00 +26°C° 0 mm 3 m/s 755 mmHg 57%
    11:00 +26°C° 0 mm 4 m/s 755 mmHg 54%
    12:00 +27°C° 0 mm 4 m/s 754 mmHg 50%
    13:00 +28°C° 0 mm 5 m/s 754 mmHg 47%
    14:00 +27°C° 0 mm 5 m/s 754 mmHg 47%
    15:00 +27°C° 0 mm 6 m/s 754 mmHg 47%
    16:00 +26°C° 0 mm 7 m/s 754 mmHg 48%
    17:00 +24°C° 0 mm 6 m/s 754 mmHg 53%
    18:00 +22°C° 0 mm 6 m/s 754 mmHg 58%
    19:00 +21°C° 0 mm 5 m/s 755 mmHg 63%
    20:00 +20°C° 0 mm 5 m/s 755 mmHg 63%
    21:00 +20°C° 0 mm 4 m/s 755 mmHg 62%
    22:00 +20°C° 0 mm 3 m/s 756 mmHg 61%
    23:00 +20°C° 0 mm 3 m/s 756 mmHg 60%

    28 Setembro, Sábado

    Tempo Temperatura Precipitação Vento Pressão Humidade
    00:00 +19°C° 0 mm 3 m/s 756 mmHg 58%
    01:00 +19°C° 0 mm 2 m/s 756 mmHg 57%
    02:00 +19°C° 0 mm 2 m/s 756 mmHg 56%
    03:00 +19°C° 0 mm 2 m/s 756 mmHg 56%
    04:00 +18°C° 0 mm 2 m/s 755 mmHg 56%
    05:00 +19°C° 0 mm 2 m/s 755 mmHg 55%
    06:00 +20°C° 0 mm 2 m/s 755 mmHg 54%
    07:00 +20°C° 0 mm 2 m/s 755 mmHg 54%
    08:00 +24°C° 0 mm 1 m/s 756 mmHg 48%
    09:00 +26°C° 0 mm 1 m/s 756 mmHg 43%
    10:00 +28°C° 0 mm 1 m/s 756 mmHg 38%
    11:00 +28°C° 0 mm 1 m/s 756 mmHg 39%
    12:00 +29°C° 0 mm 2 m/s 756 mmHg 40%
    13:00 +29°C° 0 mm 2 m/s 755 mmHg 41%
    14:00 +29°C° 0 mm 2 m/s 755 mmHg 44%
    15:00 +28°C° 0 mm 2 m/s 755 mmHg 48%
    16:00 +27°C° 0 mm 2 m/s 755 mmHg 51%
    17:00 +26°C° 0 mm 2 m/s 755 mmHg 55%
    18:00 +24°C° 0 mm 1 m/s 755 mmHg 59%
    19:00 +23°C° 0 mm 1 m/s 755 mmHg 63%
    20:00 +23°C° 0 mm 1 m/s 755 mmHg 65%
    21:00 +22°C° 0 mm 1 m/s 756 mmHg 67%
    22:00 +22°C° 0 mm 1 m/s 756 mmHg 68%
    23:00 +22°C° 0 mm 1 m/s 756 mmHg 69%
    Mostrar mais